Weather History for Hamilton, OH

Change the Weather History Date:

Monday, June 17, 2013

  Actual Average (KCVG) Record (KCVG)
Temperature  
Mean Temperature 76 °F 73 °F  
Max Temperature 88 °F 83 °F 98 °F (1944)
Min Temperature 66 °F 63 °F 45 °F (1917)
Degree Days  
Heating Degree Days 0 0  
Month to date heating degree days 12  
Since 1 June heating degree days 12  
Since 1 July heating degree days 4972  
Cooling Degree Days 11 8  
Month to date cooling degree days 106  
Year to date cooling degree days 200  
Since 1 June cooling degree days 106  
Growing Degree Days 26 (Base 50)    
Moisture  
Dew Point 68 °F    
Average Humidity 79    
Maximum Humidity 94    
Minimum Humidity 48    
Precipitation  
Precipitation 0.00 in 0.13 in 1.12 in (1975)
Month to date precipitation 2.45  
Year to date precipitation 21.04  
Snow  
Snow 0.00 in 0.00 in 0.00 in ()
Month to date snowfall 0.0  
Since 1 June snowfall 0.0  
Since 1 July snowfall 22.1  
Snow Depth -    
Sea Level Pressure  
Sea Level Pressure 29.96 in    
Wind  
Wind Speed 1 mph (SW)    
Max Wind Speed 9 mph    
Max Gust Speed 16 mph    
Visibility 8 miles    
Events Thunderstorm    
T = Trace of Precipitation, MM = Missing Value Source: NWS Daily Summary

Daily Weather History Graph

Daily Weather History Graph

Search for Another Location

Airport:

Trip Planner

Search our weather history database for the weather conditions in past years. The results will help you decide how hot, cold, wet, or windy it might be!

Date:

Astronomy

Jun. 17, 2013 Rise Set
Actual Time 6:10 AM EDT 9:07 PM EDT
Civil Twilight 5:38 AM EDT 9:39 PM EDT
Nautical Twilight 4:57 AM EDT 10:20 PM EDT
Astronomical Twilight 4:10 AM EDT 11:08 PM EDT
Moon 2:46 PM EDT (6/17) 1:44 AM EDT (6/17)
Length of Visible Light 16h 01m
Length of Day
14h 56m
First Quarter, 60% of the Moon is Illuminated
Jun 17
First Quarter
Jun 23
Full
Jun 30
Last Quarter
Jul 8
New
Jul 15
First Quarter

Hourly Weather History & Observations

Time (EDT) Temp. Heat Index Dew Point Humidity Pressure Visibility Wind Dir Wind Speed Gust Speed Precip Events Conditions
12:53 AM 66.0 °F - 64.0 °F 93% 29.99 in 7.0 mi Calm Calm - N/A   Mostly Cloudy
1:53 AM 69.1 °F - 66.9 °F 93% 29.98 in 6.0 mi Calm Calm - N/A   Overcast
2:53 AM 70.0 °F - 68.0 °F 93% 29.98 in 4.0 mi Calm Calm - N/A   Overcast
3:40 AM 69.8 °F - 68.0 °F 94% 29.98 in 6.0 mi SW 3.5 mph - N/A   Overcast
3:53 AM 70.0 °F - 66.9 °F 90% 29.98 in 6.0 mi Variable 3.5 mph - N/A   Overcast
4:53 AM 69.1 °F - 66.9 °F 93% 29.98 in 7.0 mi Calm Calm - N/A   Overcast
5:40 AM 69.8 °F - 66.2 °F 88% 29.99 in 7.0 mi Calm Calm - N/A   Overcast
5:53 AM 69.1 °F - 66.9 °F 93% 29.98 in 7.0 mi Calm Calm - N/A   Overcast
6:08 AM 69.8 °F - 66.2 °F 88% 29.99 in 7.0 mi Calm Calm - N/A   Overcast
6:53 AM 69.1 °F - 66.9 °F 93% 29.99 in 5.0 mi Variable 3.5 mph - N/A   Overcast
7:53 AM 70.0 °F - 66.9 °F 90% 29.98 in 5.0 mi Calm Calm - N/A   Overcast
8:53 AM 72.0 °F - 66.9 °F 84% 29.99 in 5.0 mi Calm Calm - N/A   Haze
9:22 AM 73.4 °F - 68.0 °F 83% 30.00 in 6.0 mi Calm Calm - N/A   Haze
9:53 AM 73.9 °F - 68.0 °F 82% 29.99 in 6.0 mi Calm Calm - N/A   Haze
10:53 AM 75.0 °F - 69.1 °F 82% 29.99 in 7.0 mi WSW 3.5 mph - N/A   Overcast
11:44 AM 77.0 °F - 69.8 °F 78% 30.00 in 7.0 mi Calm Calm - N/A   Overcast
11:53 AM 77.0 °F - 69.1 °F 76% 29.99 in 7.0 mi Calm Calm - N/A   Overcast
12:24 PM 78.8 °F - 69.8 °F 74% 29.99 in 8.0 mi Calm Calm - N/A   Scattered Clouds
12:53 PM 80.1 °F 83.2 °F 70.0 °F 71% 29.98 in 9.0 mi Variable 3.5 mph - N/A   Partly Cloudy
1:53 PM 82.9 °F 86.5 °F 69.1 °F 63% 29.97 in 10.0 mi Variable 4.6 mph - N/A   Clear
2:53 PM 84.9 °F 88.2 °F 68.0 °F 57% 29.96 in 10.0 mi Variable 3.5 mph - N/A   Clear
3:53 PM 86.0 °F 87.6 °F 64.9 °F 49% 29.92 in 10.0 mi Calm Calm - N/A   Clear
4:53 PM 86.0 °F 87.3 °F 64.0 °F 48% 29.90 in 10.0 mi SSE 4.6 mph - N/A   Clear
5:53 PM 86.0 °F 87.3 °F 64.0 °F 48% 29.88 in 10.0 mi Calm Calm - N/A   Scattered Clouds
6:53 PM 81.0 °F 85.2 °F 72.0 °F 74% 29.89 in 10.0 mi Calm Calm - N/A   Clear
7:53 PM 78.1 °F - 71.1 °F 79% 29.90 in 10.0 mi Calm Calm - N/A   Clear
8:53 PM 75.0 °F - 70.0 °F 84% 29.90 in 10.0 mi Calm Calm - N/A   Clear
9:53 PM 73.9 °F - 68.0 °F 82% 29.91 in 10.0 mi Calm Calm - N/A   Clear
10:53 PM 73.0 °F - 69.1 °F 87% 29.91 in 10.0 mi Calm Calm - N/A   Overcast
11:50 PM 75.2 °F - 64.4 °F 69% 29.93 in 10.0 mi SW 9.2 mph 16.1 mph N/A Thunderstorm Scattered Clouds
11:53 PM 75.0 °F - 64.0 °F 69% 29.92 in 10.0 mi WSW 9.2 mph - N/A Thunderstorm Scattered Clouds